Year,Month,Day,Hour,Minute,Value (Times are PST for temperature in C)
2009,07,27,00,00,16.50
2009,07,27,00,01,16.50
2009,07,27,00,02,16.50
2009,07,27,00,03,16.50
2009,07,27,00,04,16.50
2009,07,27,00,05,16.40
2009,07,27,00,06,16.40
2009,07,27,00,07,16.40
2009,07,27,00,08,16.40
2009,07,27,00,09,16.40
2009,07,27,00,10,16.40
2009,07,27,00,11,16.40
2009,07,27,00,12,16.30
2009,07,27,00,13,16.30
2009,07,27,00,14,16.30
2009,07,27,00,15,16.30
2009,07,27,00,16,16.30
2009,07,27,00,17,16.30
2009,07,27,00,18,16.30
2009,07,27,00,19,16.30
2009,07,27,00,20,16.20
2009,07,27,00,21,16.20
2009,07,27,00,22,16.20
2009,07,27,00,23,16.20
2009,07,27,00,24,16.20
2009,07,27,00,25,16.20
2009,07,27,00,26,16.20
2009,07,27,00,27,16.20
2009,07,27,00,28,16.20
2009,07,27,00,29,16.20
2009,07,27,00,30,16.20
2009,07,27,00,31,16.20
2009,07,27,00,32,16.20
2009,07,27,00,33,16.20
2009,07,27,00,34,16.20
2009,07,27,00,35,16.20
2009,07,27,00,36,16.20
2009,07,27,00,37,16.20
2009,07,27,00,38,16.20
2009,07,27,00,39,16.20
2009,07,27,00,40,16.20
2009,07,27,00,41,16.20
2009,07,27,00,42,16.20
2009,07,27,00,43,16.20
2009,07,27,00,44,16.20
2009,07,27,00,45,16.20
2009,07,27,00,46,16.20
2009,07,27,00,47,16.20
2009,07,27,00,48,16.20
2009,07,27,00,49,16.20
2009,07,27,00,50,16.20
2009,07,27,00,51,16.20
2009,07,27,00,52,16.20
2009,07,27,00,53,16.20
2009,07,27,00,54,16.20
2009,07,27,00,55,16.20
2009,07,27,00,56,16.20
2009,07,27,00,57,16.20
2009,07,27,00,58,16.20
2009,07,27,00,59,16.30
2009,07,27,01,00,16.30
2009,07,27,01,01,16.30
2009,07,27,01,02,16.30
2009,07,27,01,03,16.30
2009,07,27,01,04,16.30
2009,07,27,01,05,16.30
2009,07,27,01,06,16.20
2009,07,27,01,07,16.20
2009,07,27,01,08,16.20
2009,07,27,01,09,16.20
2009,07,27,01,10,16.20
2009,07,27,01,11,16.20
2009,07,27,01,12,16.20
2009,07,27,01,13,16.20
2009,07,27,01,14,16.20
2009,07,27,01,15,16.20
2009,07,27,01,16,16.20
2009,07,27,01,17,16.20
2009,07,27,01,18,16.20
2009,07,27,01,19,16.20
2009,07,27,01,20,16.10
2009,07,27,01,21,16.10
2009,07,27,01,22,16.10
2009,07,27,01,23,16.10
2009,07,27,01,24,16.10
2009,07,27,01,25,16.10
2009,07,27,01,26,16.10
2009,07,27,01,27,16.10
2009,07,27,01,28,16.10
2009,07,27,01,29,16.10
2009,07,27,01,30,16.10
2009,07,27,01,31,16.10
2009,07,27,01,32,16.10
2009,07,27,01,33,16.10
2009,07,27,01,34,16.10
2009,07,27,01,35,16.10
2009,07,27,01,36,16.10
2009,07,27,01,37,16.10
2009,07,27,01,38,16.10
2009,07,27,01,39,16.10
2009,07,27,01,40,16.10
2009,07,27,01,41,16.10
2009,07,27,01,42,16.20
2009,07,27,01,43,16.20
2009,07,27,01,44,16.20
2009,07,27,01,45,16.20
2009,07,27,01,46,16.30
2009,07,27,01,47,16.30
2009,07,27,01,48,16.20
2009,07,27,01,49,16.20
2009,07,27,01,50,16.20
2009,07,27,01,51,16.20
2009,07,27,01,52,16.20
2009,07,27,01,53,16.20
2009,07,27,01,54,16.20
2009,07,27,01,55,16.20
2009,07,27,01,56,16.20
2009,07,27,01,57,16.20
2009,07,27,01,58,16.20
2009,07,27,01,59,16.20
2009,07,27,02,00,16.20
2009,07,27,02,01,16.20
2009,07,27,02,02,16.20
2009,07,27,02,03,16.20
2009,07,27,02,04,16.20
2009,07,27,02,05,16.20
2009,07,27,02,06,16.20
2009,07,27,02,07,16.20
2009,07,27,02,08,16.20
2009,07,27,02,09,16.20
2009,07,27,02,10,16.20
2009,07,27,02,11,16.20
2009,07,27,02,12,16.20
2009,07,27,02,13,16.20
2009,07,27,02,14,16.20
2009,07,27,02,15,16.20
2009,07,27,02,16,16.20
2009,07,27,02,17,16.20
2009,07,27,02,18,16.20
2009,07,27,02,19,16.20
2009,07,27,02,20,16.20
2009,07,27,02,21,16.20
2009,07,27,02,22,16.20
2009,07,27,02,23,16.20
2009,07,27,02,24,16.20
2009,07,27,02,25,16.20
2009,07,27,02,26,16.20
2009,07,27,02,27,16.20
2009,07,27,02,28,16.20
2009,07,27,02,29,16.20
2009,07,27,02,30,16.20
2009,07,27,02,31,16.20
2009,07,27,02,32,16.20
2009,07,27,02,33,16.20
2009,07,27,02,34,16.20
2009,07,27,02,35,16.20
2009,07,27,02,36,16.20
2009,07,27,02,37,16.20
2009,07,27,02,38,16.10
2009,07,27,02,39,16.10
2009,07,27,02,40,16.10
2009,07,27,02,41,16.10
2009,07,27,02,42,16.10
2009,07,27,02,43,16.10
2009,07,27,02,44,16.10
2009,07,27,02,45,16.10
2009,07,27,02,46,16.00
2009,07,27,02,47,16.00
2009,07,27,02,48,16.00
2009,07,27,02,49,16.00
2009,07,27,02,50,16.00
2009,07,27,02,51,16.00
2009,07,27,02,52,16.00
2009,07,27,02,53,16.00
2009,07,27,02,54,16.00
2009,07,27,02,55,15.90
2009,07,27,02,56,15.90
2009,07,27,02,57,15.90
2009,07,27,02,58,15.90
2009,07,27,02,59,15.90
2009,07,27,03,00,16.00
2009,07,27,03,01,16.00
2009,07,27,03,02,16.00
2009,07,27,03,03,16.00
2009,07,27,03,04,16.10
2009,07,27,03,05,16.10
2009,07,27,03,06,16.10
2009,07,27,03,07,16.10
2009,07,27,03,08,16.10
2009,07,27,03,09,16.10
2009,07,27,03,10,16.10
2009,07,27,03,11,16.10
2009,07,27,03,12,16.10
2009,07,27,03,13,16.10
2009,07,27,03,14,16.10
2009,07,27,03,15,16.00
2009,07,27,03,16,16.00
2009,07,27,03,17,16.00
2009,07,27,03,18,15.90
2009,07,27,03,19,15.90
2009,07,27,03,20,15.90
2009,07,27,03,21,15.90
2009,07,27,03,22,15.80
2009,07,27,03,23,15.80
2009,07,27,03,24,15.80
2009,07,27,03,25,15.70
2009,07,27,03,26,15.70
2009,07,27,03,27,15.70
2009,07,27,03,28,15.60
2009,07,27,03,29,15.60
2009,07,27,03,30,15.60
2009,07,27,03,31,15.50
2009,07,27,03,32,15.50
2009,07,27,03,33,15.40
2009,07,27,03,34,15.40
2009,07,27,03,35,15.40
2009,07,27,03,36,15.30
2009,07,27,03,37,15.30
2009,07,27,03,38,15.30
2009,07,27,03,39,15.20
2009,07,27,03,40,15.20
2009,07,27,03,41,15.20
2009,07,27,03,42,15.20
2009,07,27,03,43,15.20
2009,07,27,03,44,15.20
2009,07,27,03,45,15.20
2009,07,27,03,46,15.20
2009,07,27,03,47,15.20
2009,07,27,03,48,15.20
2009,07,27,03,49,15.20
2009,07,27,03,50,15.20
2009,07,27,03,51,15.20
2009,07,27,03,52,15.20
2009,07,27,03,53,15.20
2009,07,27,03,54,15.20
2009,07,27,03,55,15.20
2009,07,27,03,56,15.20
2009,07,27,03,57,15.10
2009,07,27,03,58,15.10
2009,07,27,03,59,15.00
2009,07,27,04,00,15.00
2009,07,27,04,01,15.00
2009,07,27,04,02,15.00
2009,07,27,04,03,15.00
2009,07,27,04,04,15.00
2009,07,27,04,05,15.00
2009,07,27,04,06,15.00
2009,07,27,04,07,15.00
2009,07,27,04,08,15.00
2009,07,27,04,09,15.00
2009,07,27,04,10,15.00
2009,07,27,04,11,15.00
2009,07,27,04,12,15.00
2009,07,27,04,13,15.00
2009,07,27,04,14,15.00
2009,07,27,04,15,15.00
2009,07,27,04,16,15.00
2009,07,27,04,17,15.00
2009,07,27,04,18,15.00
2009,07,27,04,19,15.00
2009,07,27,04,20,15.00
2009,07,27,04,21,15.00
2009,07,27,04,22,15.00
2009,07,27,04,23,15.00
2009,07,27,04,24,15.00
2009,07,27,04,25,15.00
2009,07,27,04,26,15.00
2009,07,27,04,27,15.00
2009,07,27,04,28,15.00
2009,07,27,04,29,15.00
2009,07,27,04,30,15.00
2009,07,27,04,31,15.00
2009,07,27,04,32,15.00
2009,07,27,04,33,15.00
2009,07,27,04,34,15.00
2009,07,27,04,35,15.00
2009,07,27,04,36,15.00
2009,07,27,04,37,15.00
2009,07,27,04,38,15.00
2009,07,27,04,39,15.00
2009,07,27,04,40,15.00
2009,07,27,04,41,15.00
2009,07,27,04,42,15.00
2009,07,27,04,43,15.00
2009,07,27,04,44,15.00
2009,07,27,04,45,15.00
2009,07,27,04,46,15.00
2009,07,27,04,47,15.00
2009,07,27,04,48,15.00
2009,07,27,04,49,15.00
2009,07,27,04,50,15.00
2009,07,27,04,51,15.00
2009,07,27,04,52,15.00
2009,07,27,04,53,15.00
2009,07,27,04,54,15.00
2009,07,27,04,55,15.00
2009,07,27,04,56,15.00
2009,07,27,04,57,15.00
2009,07,27,04,58,15.00
2009,07,27,04,59,15.00
2009,07,27,05,00,15.00
2009,07,27,05,01,15.00
2009,07,27,05,02,15.00
2009,07,27,05,03,15.00
2009,07,27,05,04,15.00
2009,07,27,05,05,15.00
2009,07,27,05,06,15.00
2009,07,27,05,07,15.00
2009,07,27,05,08,15.00
2009,07,27,05,09,15.00
2009,07,27,05,10,15.00
2009,07,27,05,11,14.90
2009,07,27,05,12,14.90
2009,07,27,05,13,14.90
2009,07,27,05,14,14.90
2009,07,27,05,15,14.90
2009,07,27,05,16,14.90
2009,07,27,05,17,14.90
2009,07,27,05,18,14.90
2009,07,27,05,19,14.90
2009,07,27,05,20,14.80
2009,07,27,05,21,14.80
2009,07,27,05,22,14.80
2009,07,27,05,23,14.80
2009,07,27,05,24,14.80
2009,07,27,05,25,14.80
2009,07,27,05,26,14.80
2009,07,27,05,27,14.80
2009,07,27,05,28,14.90
2009,07,27,05,29,14.80
2009,07,27,05,30,14.80
2009,07,27,05,31,14.80
2009,07,27,05,32,14.80
2009,07,27,05,33,14.80
2009,07,27,05,34,14.80
2009,07,27,05,35,14.80
2009,07,27,05,36,14.80
2009,07,27,05,37,14.80
2009,07,27,05,38,14.80
2009,07,27,05,39,14.80
2009,07,27,05,40,14.80
2009,07,27,05,41,14.80
2009,07,27,05,42,14.80
2009,07,27,05,43,14.80
2009,07,27,05,44,14.80
2009,07,27,05,45,14.80
2009,07,27,05,46,14.80
2009,07,27,05,47,14.80
2009,07,27,05,48,14.80
2009,07,27,05,49,14.80
2009,07,27,05,50,14.80
2009,07,27,05,51,14.80
2009,07,27,05,52,14.80
2009,07,27,05,53,14.80
2009,07,27,05,54,14.80
2009,07,27,05,55,14.80
2009,07,27,05,56,14.80
2009,07,27,05,57,14.80
2009,07,27,05,58,14.80
2009,07,27,05,59,14.80
2009,07,27,06,00,14.80
2009,07,27,06,01,14.80
2009,07,27,06,02,14.80
2009,07,27,06,03,14.80
2009,07,27,06,04,14.80
2009,07,27,06,05,14.90
2009,07,27,06,06,14.90
2009,07,27,06,07,14.90
2009,07,27,06,08,14.90
2009,07,27,06,09,14.90
2009,07,27,06,10,15.00
2009,07,27,06,11,15.00
2009,07,27,06,12,15.00
2009,07,27,06,13,15.00
2009,07,27,06,14,15.00
2009,07,27,06,15,15.00
2009,07,27,06,16,15.00
2009,07,27,06,17,15.00
2009,07,27,06,18,15.00
2009,07,27,06,19,15.00
2009,07,27,06,20,15.00
2009,07,27,06,21,15.00
2009,07,27,06,22,15.00
2009,07,27,06,23,15.00
2009,07,27,06,24,15.00
2009,07,27,06,25,15.00
2009,07,27,06,26,15.00
2009,07,27,06,27,15.10
2009,07,27,06,28,15.10
2009,07,27,06,29,15.20
2009,07,27,06,30,15.20
2009,07,27,06,31,15.30
2009,07,27,06,32,15.30
2009,07,27,06,33,15.30
2009,07,27,06,34,15.40
2009,07,27,06,35,15.40
2009,07,27,06,36,15.40
2009,07,27,06,37,15.40
2009,07,27,06,38,15.50
2009,07,27,06,39,15.50
2009,07,27,06,40,15.50
2009,07,27,06,41,15.60
2009,07,27,06,42,15.60
2009,07,27,06,43,15.70
2009,07,27,06,44,15.70
2009,07,27,06,45,15.70
2009,07,27,06,46,15.80
2009,07,27,06,47,15.90
2009,07,27,06,48,15.90
2009,07,27,06,49,16.00
2009,07,27,06,50,16.10
2009,07,27,06,51,16.10
2009,07,27,06,52,16.20
2009,07,27,06,53,16.20
2009,07,27,06,54,16.20
2009,07,27,06,55,16.30
2009,07,27,06,56,16.30
2009,07,27,06,57,16.30
2009,07,27,06,58,16.40
2009,07,27,06,59,16.40
2009,07,27,07,00,16.40
2009,07,27,07,01,16.40
2009,07,27,07,02,16.50
2009,07,27,07,03,16.60
2009,07,27,07,04,16.60
2009,07,27,07,05,16.60
2009,07,27,07,06,16.70
2009,07,27,07,07,16.70
2009,07,27,07,08,16.80
2009,07,27,07,09,16.80
2009,07,27,07,10,16.90
2009,07,27,07,11,16.90
2009,07,27,07,12,17.00
2009,07,27,07,13,17.10
2009,07,27,07,14,17.10
2009,07,27,07,15,17.20
2009,07,27,07,16,17.30
2009,07,27,07,17,17.30
2009,07,27,07,18,17.40
2009,07,27,07,19,17.40
2009,07,27,07,20,17.50
2009,07,27,07,21,17.60
2009,07,27,07,22,17.70
2009,07,27,07,23,17.70
2009,07,27,07,24,17.80
2009,07,27,07,25,17.90
2009,07,27,07,26,18.00
2009,07,27,07,27,18.10
2009,07,27,07,28,18.20
2009,07,27,07,29,18.30
2009,07,27,07,30,18.40
2009,07,27,07,31,18.40
2009,07,27,07,32,18.50
2009,07,27,07,33,18.50
2009,07,27,07,34,18.60
2009,07,27,07,35,18.70
2009,07,27,07,36,18.70
2009,07,27,07,37,18.70
2009,07,27,07,38,18.80
2009,07,27,07,39,18.80
2009,07,27,07,40,18.90
2009,07,27,07,41,18.90
2009,07,27,07,42,19.00
2009,07,27,07,43,19.00
2009,07,27,07,44,19.10
2009,07,27,07,45,19.10
2009,07,27,07,46,19.20
2009,07,27,07,47,19.20
2009,07,27,07,48,19.30
2009,07,27,07,49,19.30
2009,07,27,07,50,19.40
2009,07,27,07,51,19.50
2009,07,27,07,52,19.50
2009,07,27,07,53,19.60
2009,07,27,07,54,19.60
2009,07,27,07,55,19.70
2009,07,27,07,56,19.70
2009,07,27,07,57,19.70
2009,07,27,07,58,19.80
2009,07,27,07,59,19.80
2009,07,27,08,00,19.80
2009,07,27,08,01,19.90
2009,07,27,08,02,20.00
2009,07,27,08,03,20.10
2009,07,27,08,04,20.10
2009,07,27,08,05,20.20
2009,07,27,08,06,20.20
2009,07,27,08,07,20.20
2009,07,27,08,08,20.30
2009,07,27,08,09,20.30
2009,07,27,08,10,20.30
2009,07,27,08,11,20.40
2009,07,27,08,12,20.40
2009,07,27,08,13,20.50
2009,07,27,08,14,20.60
2009,07,27,08,15,20.70
2009,07,27,08,16,20.80
2009,07,27,08,17,20.80
2009,07,27,08,18,20.90
2009,07,27,08,19,21.00
2009,07,27,08,20,21.10
2009,07,27,08,21,21.20
2009,07,27,08,22,21.30
2009,07,27,08,23,21.50
2009,07,27,08,24,21.60
2009,07,27,08,25,21.70
2009,07,27,08,26,21.80
2009,07,27,08,27,22.00
2009,07,27,08,28,22.10
2009,07,27,08,29,22.30
2009,07,27,08,30,22.50
2009,07,27,08,31,22.70
2009,07,27,08,32,22.80
2009,07,27,08,33,23.00
2009,07,27,08,34,23.10
2009,07,27,08,35,23.20
2009,07,27,08,36,23.30
2009,07,27,08,37,23.40
2009,07,27,08,38,23.40
2009,07,27,08,39,23.50
2009,07,27,08,40,23.50
2009,07,27,08,41,23.60
2009,07,27,08,42,23.70
2009,07,27,08,43,23.80
2009,07,27,08,44,23.90
2009,07,27,08,45,24.00
2009,07,27,08,46,24.10
2009,07,27,08,47,24.20
2009,07,27,08,48,24.30
2009,07,27,08,49,24.40
2009,07,27,08,50,24.50
2009,07,27,08,51,24.50
2009,07,27,08,52,24.60
2009,07,27,08,53,24.60
2009,07,27,08,54,24.70
2009,07,27,08,55,24.70
2009,07,27,08,56,24.70
2009,07,27,08,57,24.70
2009,07,27,08,58,24.70
2009,07,27,08,59,24.70
2009,07,27,09,00,24.70
2009,07,27,09,01,24.70
2009,07,27,09,02,24.70
2009,07,27,09,03,24.60
2009,07,27,09,04,24.60
2009,07,27,09,05,24.60
2009,07,27,09,06,24.60
2009,07,27,09,07,24.70
2009,07,27,09,08,24.70
2009,07,27,09,09,24.70
2009,07,27,09,10,24.80
2009,07,27,09,11,24.90
2009,07,27,09,12,25.00
2009,07,27,09,13,25.00
2009,07,27,09,14,25.10
2009,07,27,09,15,25.20
2009,07,27,09,16,25.30
2009,07,27,09,17,25.30
2009,07,27,09,18,25.30
2009,07,27,09,19,25.40
2009,07,27,09,20,25.40
2009,07,27,09,21,25.40
2009,07,27,09,22,25.50
2009,07,27,09,23,25.60
2009,07,27,09,24,25.70
2009,07,27,09,25,25.80
2009,07,27,09,26,25.90
2009,07,27,09,27,25.90
2009,07,27,09,28,25.90
2009,07,27,09,29,25.90
2009,07,27,09,30,25.90
2009,07,27,09,31,26.00
2009,07,27,09,32,26.10
2009,07,27,09,33,26.20
2009,07,27,09,34,26.20
2009,07,27,09,35,26.30
2009,07,27,09,36,26.30
2009,07,27,09,37,26.30
2009,07,27,09,38,26.30
2009,07,27,09,39,26.20
2009,07,27,09,40,26.20
2009,07,27,09,41,26.10
2009,07,27,09,42,26.10
2009,07,27,09,43,26.10
2009,07,27,09,44,26.00
2009,07,27,09,45,25.90
2009,07,27,09,46,25.90
2009,07,27,09,47,25.90
2009,07,27,09,48,25.90
2009,07,27,09,49,25.80
2009,07,27,09,50,25.80
2009,07,27,09,51,25.70
2009,07,27,09,52,25.70
2009,07,27,09,53,25.70
2009,07,27,09,54,25.70
2009,07,27,09,55,25.80
2009,07,27,09,56,25.80
2009,07,27,09,57,25.80
2009,07,27,09,58,25.90
2009,07,27,09,59,25.90
2009,07,27,10,00,25.90
2009,07,27,10,01,25.90
2009,07,27,10,02,26.00
2009,07,27,10,03,26.00
2009,07,27,10,04,26.10
2009,07,27,10,05,26.10
2009,07,27,10,06,26.10
2009,07,27,10,07,26.20
2009,07,27,10,08,26.20
2009,07,27,10,09,26.20
2009,07,27,10,10,26.20
2009,07,27,10,11,26.20
2009,07,27,10,12,26.20
2009,07,27,10,13,26.20
2009,07,27,10,14,26.20
2009,07,27,10,15,26.20
2009,07,27,10,16,26.20
2009,07,27,10,17,26.20
2009,07,27,10,18,26.20
2009,07,27,10,19,26.20
2009,07,27,10,20,26.30
2009,07,27,10,21,26.30
2009,07,27,10,22,26.40
2009,07,27,10,23,26.40
2009,07,27,10,24,26.40
2009,07,27,10,25,26.40
2009,07,27,10,26,26.40
2009,07,27,10,27,26.40
2009,07,27,10,28,26.40
2009,07,27,10,29,26.40
2009,07,27,10,30,26.50
2009,07,27,10,31,26.50
2009,07,27,10,32,26.50
2009,07,27,10,33,26.50
2009,07,27,10,34,26.50
2009,07,27,10,35,26.40
2009,07,27,10,36,26.40
2009,07,27,10,37,26.40
2009,07,27,10,38,26.50
2009,07,27,10,39,26.50
2009,07,27,10,40,26.60
2009,07,27,10,41,26.60
2009,07,27,10,42,26.60
2009,07,27,10,43,26.70
2009,07,27,10,44,26.70
2009,07,27,10,45,26.70
2009,07,27,10,46,26.70
2009,07,27,10,47,26.70
2009,07,27,10,48,26.70
2009,07,27,10,49,26.70
2009,07,27,10,50,26.80
2009,07,27,10,51,26.90
2009,07,27,10,52,27.00
2009,07,27,10,53,27.10
2009,07,27,10,54,27.20
2009,07,27,10,55,27.30
2009,07,27,10,56,27.30
2009,07,27,10,57,27.40
2009,07,27,10,58,27.50
2009,07,27,10,59,27.60
2009,07,27,11,00,27.70
2009,07,27,11,01,27.70
2009,07,27,11,02,27.70
2009,07,27,11,03,27.70
2009,07,27,11,04,27.70
2009,07,27,11,05,27.70
2009,07,27,11,06,27.70
2009,07,27,11,07,27.70
2009,07,27,11,08,27.70
2009,07,27,11,09,27.60
2009,07,27,11,10,27.70
2009,07,27,11,11,27.70
2009,07,27,11,12,27.70
2009,07,27,11,13,27.70
2009,07,27,11,14,27.70
2009,07,27,11,15,27.70
2009,07,27,11,16,27.70
2009,07,27,11,17,27.70
2009,07,27,11,18,27.70
2009,07,27,11,19,27.60
2009,07,27,11,20,27.60
2009,07,27,11,21,27.70
2009,07,27,11,22,27.70
2009,07,27,11,23,27.70
2009,07,27,11,24,27.80
2009,07,27,11,25,27.80
2009,07,27,11,26,27.90
2009,07,27,11,27,27.90
2009,07,27,11,28,27.90
2009,07,27,11,29,27.80
2009,07,27,11,30,27.70
2009,07,27,11,31,27.70
2009,07,27,11,32,27.60
2009,07,27,11,33,27.60
2009,07,27,11,34,27.60
2009,07,27,11,35,27.70
2009,07,27,11,36,27.70
2009,07,27,11,37,27.80
2009,07,27,11,38,27.80
2009,07,27,11,39,27.80
2009,07,27,11,40,27.90
2009,07,27,11,41,27.90
2009,07,27,11,42,27.90
2009,07,27,11,43,28.00
2009,07,27,11,44,28.10
2009,07,27,11,45,28.10
2009,07,27,11,46,28.20
2009,07,27,11,47,28.20
2009,07,27,11,48,28.20
2009,07,27,11,49,28.20
2009,07,27,11,50,28.20
2009,07,27,11,51,28.20
2009,07,27,11,52,28.20
2009,07,27,11,53,28.10
2009,07,27,11,54,28.10
2009,07,27,11,55,28.10
2009,07,27,11,56,28.10
2009,07,27,11,57,28.20
2009,07,27,11,58,28.30
2009,07,27,11,59,28.30
2009,07,27,12,00,28.40
2009,07,27,12,01,28.40
2009,07,27,12,02,28.50
2009,07,27,12,03,28.50
2009,07,27,12,04,28.50
2009,07,27,12,05,28.50
2009,07,27,12,06,28.50
2009,07,27,12,07,28.60
2009,07,27,12,08,28.60
2009,07,27,12,09,28.70
2009,07,27,12,10,28.80
2009,07,27,12,11,28.90
2009,07,27,12,12,29.00
2009,07,27,12,13,29.10
2009,07,27,12,14,29.10
2009,07,27,12,15,29.10
2009,07,27,12,16,29.10
2009,07,27,12,17,29.10
2009,07,27,12,18,29.10
2009,07,27,12,19,29.10
2009,07,27,12,20,29.10
2009,07,27,12,21,29.00
2009,07,27,12,22,28.90
2009,07,27,12,23,28.90
2009,07,27,12,24,28.90
2009,07,27,12,25,28.90
2009,07,27,12,26,28.90
2009,07,27,12,27,28.90
2009,07,27,12,28,28.90
2009,07,27,12,29,28.90
2009,07,27,12,30,29.00
2009,07,27,12,31,29.00
2009,07,27,12,32,29.00
2009,07,27,12,33,29.10
2009,07,27,12,34,29.10
2009,07,27,12,35,29.10
2009,07,27,12,36,29.10
2009,07,27,12,37,29.10
2009,07,27,12,38,29.00
2009,07,27,12,39,29.00
2009,07,27,12,40,29.10
2009,07,27,12,41,29.10
2009,07,27,12,42,29.20
2009,07,27,12,43,29.20
2009,07,27,12,44,29.30
2009,07,27,12,45,29.30
2009,07,27,12,46,29.30
2009,07,27,12,47,29.30
2009,07,27,12,48,29.30
2009,07,27,12,49,29.30
2009,07,27,12,50,29.20
2009,07,27,12,51,29.20
2009,07,27,12,52,29.20
2009,07,27,12,53,29.20
2009,07,27,12,54,29.20
2009,07,27,12,55,29.30
2009,07,27,12,56,29.30
2009,07,27,12,57,29.40
2009,07,27,12,58,29.40
2009,07,27,12,59,29.50
2009,07,27,13,00,29.60
2009,07,27,13,01,29.70
2009,07,27,13,02,29.80
2009,07,27,13,03,29.90
2009,07,27,13,04,30.00
2009,07,27,13,05,30.10
2009,07,27,13,06,30.20
2009,07,27,13,07,30.20
2009,07,27,13,08,30.20
2009,07,27,13,09,30.10
2009,07,27,13,10,30.00
2009,07,27,13,11,30.00
2009,07,27,13,12,29.90
2009,07,27,13,13,29.90
2009,07,27,13,14,29.90
2009,07,27,13,15,29.90
2009,07,27,13,16,29.90
2009,07,27,13,17,29.90
2009,07,27,13,18,29.90
2009,07,27,13,19,29.90
2009,07,27,13,20,29.80
2009,07,27,13,21,29.80
2009,07,27,13,22,29.70
2009,07,27,13,23,29.80
2009,07,27,13,24,29.90
2009,07,27,13,25,29.90
2009,07,27,13,26,30.00
2009,07,27,13,27,30.10
2009,07,27,13,28,30.10
2009,07,27,13,29,30.10
2009,07,27,13,30,30.10
2009,07,27,13,31,30.20
2009,07,27,13,32,30.20
2009,07,27,13,33,30.30
2009,07,27,13,34,30.30
2009,07,27,13,35,30.30
2009,07,27,13,36,30.20
2009,07,27,13,37,30.30
2009,07,27,13,38,30.30
2009,07,27,13,39,30.30
2009,07,27,13,40,30.20
2009,07,27,13,41,30.20
2009,07,27,13,42,30.10
2009,07,27,13,43,30.00
2009,07,27,13,44,30.00
2009,07,27,13,45,30.00
2009,07,27,13,46,30.00
2009,07,27,13,47,30.00
2009,07,27,13,48,30.10
2009,07,27,13,49,30.10
2009,07,27,13,50,30.10
2009,07,27,13,51,30.10
2009,07,27,13,52,30.10
2009,07,27,13,53,30.20
2009,07,27,13,54,30.10
2009,07,27,13,55,30.00
2009,07,27,13,56,29.90
2009,07,27,13,57,29.70
2009,07,27,13,58,29.50
2009,07,27,13,59,29.20
2009,07,27,14,00,29.00
2009,07,27,14,01,28.80
2009,07,27,14,02,28.70
2009,07,27,14,03,28.50
2009,07,27,14,04,28.40
2009,07,27,14,05,28.30
2009,07,27,14,06,28.20
2009,07,27,14,07,28.00
2009,07,27,14,08,27.90
2009,07,27,14,09,27.80
2009,07,27,14,10,27.80
2009,07,27,14,11,27.80
2009,07,27,14,12,27.70
2009,07,27,14,13,27.70
2009,07,27,14,14,27.70
2009,07,27,14,15,27.70
2009,07,27,14,16,27.60
2009,07,27,14,17,27.60
2009,07,27,14,18,27.50
2009,07,27,14,19,27.40
2009,07,27,14,20,27.40
2009,07,27,14,21,27.50
2009,07,27,14,22,27.40
2009,07,27,14,23,27.30
2009,07,27,14,24,27.00
2009,07,27,14,25,26.80
2009,07,27,14,26,26.70
2009,07,27,14,27,26.50
2009,07,27,14,28,26.40
2009,07,27,14,29,26.30
2009,07,27,14,30,26.30
2009,07,27,14,31,26.20
2009,07,27,14,32,26.10
2009,07,27,14,33,26.10
2009,07,27,14,34,26.10
2009,07,27,14,35,26.10
2009,07,27,14,36,26.10
2009,07,27,14,37,26.10
2009,07,27,14,38,26.20
2009,07,27,14,39,26.20
2009,07,27,14,40,26.20
2009,07,27,14,41,26.20
2009,07,27,14,42,26.30
2009,07,27,14,43,26.30
2009,07,27,14,44,26.30
2009,07,27,14,45,26.30
2009,07,27,14,46,26.30
2009,07,27,14,47,26.30
2009,07,27,14,48,26.30
2009,07,27,14,49,26.30
2009,07,27,14,50,26.30
2009,07,27,14,51,26.30
2009,07,27,14,52,26.30
2009,07,27,14,53,26.30
2009,07,27,14,54,26.30
2009,07,27,14,55,26.30
2009,07,27,14,56,26.30
2009,07,27,14,57,26.30
2009,07,27,14,58,26.40
2009,07,27,14,59,26.40
2009,07,27,15,00,26.40
2009,07,27,15,01,26.40
2009,07,27,15,02,26.50
2009,07,27,15,03,26.50
2009,07,27,15,04,26.50
2009,07,27,15,05,26.60
2009,07,27,15,06,26.60
2009,07,27,15,07,26.60
2009,07,27,15,08,26.70
2009,07,27,15,09,26.70
2009,07,27,15,10,26.80
2009,07,27,15,11,26.90
2009,07,27,15,12,26.90
2009,07,27,15,13,26.90
2009,07,27,15,14,27.00
2009,07,27,15,15,27.00
2009,07,27,15,16,27.00
2009,07,27,15,17,27.00
2009,07,27,15,18,26.90
2009,07,27,15,19,26.90
2009,07,27,15,20,26.90
2009,07,27,15,21,26.80
2009,07,27,15,22,26.80
2009,07,27,15,23,26.80
2009,07,27,15,24,26.80
2009,07,27,15,25,26.80
2009,07,27,15,26,26.80
2009,07,27,15,27,26.80
2009,07,27,15,28,26.80
2009,07,27,15,29,26.80
2009,07,27,15,30,26.70
2009,07,27,15,31,26.60
2009,07,27,15,32,26.50
2009,07,27,15,33,26.40
2009,07,27,15,34,26.40
2009,07,27,15,35,26.30
2009,07,27,15,36,26.30
2009,07,27,15,37,26.30
2009,07,27,15,38,26.30
2009,07,27,15,39,26.30
2009,07,27,15,40,26.30
2009,07,27,15,41,26.30
2009,07,27,15,42,26.30
2009,07,27,15,43,26.30
2009,07,27,15,44,26.30
2009,07,27,15,45,26.40
2009,07,27,15,46,26.50
2009,07,27,15,47,26.50
2009,07,27,15,48,26.60
2009,07,27,15,49,26.60
2009,07,27,15,50,26.60
2009,07,27,15,51,26.70
2009,07,27,15,52,26.70
2009,07,27,15,53,26.70
2009,07,27,15,54,26.80
2009,07,27,15,55,26.90
2009,07,27,15,56,27.00
2009,07,27,15,57,27.10
2009,07,27,15,58,27.20
2009,07,27,15,59,27.20
2009,07,27,16,00,27.30
2009,07,27,16,01,27.30
2009,07,27,16,02,27.30
2009,07,27,16,03,27.30
2009,07,27,16,04,27.40
2009,07,27,16,05,27.40
2009,07,27,16,06,27.50
2009,07,27,16,07,27.50
2009,07,27,16,08,27.50
2009,07,27,16,09,27.60
2009,07,27,16,10,27.60
2009,07,27,16,11,27.60
2009,07,27,16,12,27.70
2009,07,27,16,13,27.70
2009,07,27,16,14,27.70
2009,07,27,16,15,27.60
2009,07,27,16,16,27.60
2009,07,27,16,17,27.70
2009,07,27,16,18,27.70
2009,07,27,16,19,27.70
2009,07,27,16,20,27.80
2009,07,27,16,21,27.80
2009,07,27,16,22,27.80
2009,07,27,16,23,27.80
2009,07,27,16,24,27.80
2009,07,27,16,25,27.80
2009,07,27,16,26,27.80
2009,07,27,16,27,27.80
2009,07,27,16,28,27.80
2009,07,27,16,29,27.90
2009,07,27,16,30,27.90
2009,07,27,16,31,27.90
2009,07,27,16,32,28.10
2009,07,27,16,33,28.10
2009,07,27,16,34,28.20
2009,07,27,16,35,28.30
2009,07,27,16,36,28.40
2009,07,27,16,37,28.50
2009,07,27,16,38,28.50
2009,07,27,16,39,28.60
2009,07,27,16,40,28.70
2009,07,27,16,41,28.70
2009,07,27,16,42,28.80
2009,07,27,16,43,28.90
2009,07,27,16,44,29.00
2009,07,27,16,45,29.00
2009,07,27,16,46,29.10
2009,07,27,16,47,29.10
2009,07,27,16,48,29.10
2009,07,27,16,49,29.20
2009,07,27,16,50,29.20
2009,07,27,16,51,29.30
2009,07,27,16,52,29.40
2009,07,27,16,53,29.50
2009,07,27,16,54,29.50
2009,07,27,16,55,29.60
2009,07,27,16,56,29.70
2009,07,27,16,57,29.70
2009,07,27,16,58,29.70
2009,07,27,16,59,29.80
2009,07,27,17,00,29.80
2009,07,27,17,01,29.90
2009,07,27,17,02,29.90
2009,07,27,17,03,29.90
2009,07,27,17,04,30.00
2009,07,27,17,05,30.10
2009,07,27,17,06,30.10
2009,07,27,17,07,30.20
2009,07,27,17,08,30.20
2009,07,27,17,09,30.30
2009,07,27,17,10,30.30
2009,07,27,17,11,30.40
2009,07,27,17,12,30.40
2009,07,27,17,13,30.40
2009,07,27,17,14,30.50
2009,07,27,17,15,30.60
2009,07,27,17,16,30.60
2009,07,27,17,17,30.60
2009,07,27,17,18,30.70
2009,07,27,17,19,30.80